loading
DOY 175 | 2024-06-23T16:53:51Z

THOR ABLESTAR R/B, 953

Orbit data source: Space-Track

THOR ABLESTAR R/B, 953 is space debris in LEO originally from a launch on Sun, 13 Dec 1964 UTC launched from the Air Force Western Test Range (AFWTR). Debris objects in space refer to the collection of defunct objects orbiting the Earth. Examples of debris include non-operational satellites, rocket bodies, and fragments generated from explosions, collisions, or faulty payload assembly.

Loading next visibility...
Loading greatness...
THOR ABLESTAR R/B details
NORAD ID953
COSPAR ID
1964-083A
Orbit
LEO
Last TLE update18 hours ago
Origin
Flag of USUSAF SSD (US)
ManufacturerAerojet
BusAblestar
MotorUnknown
Mass~600 kg wet, 600 kg dry
Launch date (UTC)
1964-12-13 (60 years ago)
Launch vehicleUnknown
Launch site
Air Force Western Test Range (AFWTR)
Object type
Payload
Rocket body
Debris
Radar Cross Section3.7 m², Large (>1 m²)
Predictive object data (real-time)
Latitude27.4475°
Longitude-71.39471°
Altitude1,019.622 km
Speed7.356 km/s
Apparent Right ascension14h 08m 07s
Apparent Declination-3° 43' 17"
Sunlit
Object is in daylight
Predictive observer data (real-time)
Local Sidereal Time04:02:47
Azimuth43.072° NE
Elevation-45.496°
Doppler factor1
Orbital elements
Apogee1,061.941 km
Perigee1,012.639 km
Semi-major axis7,415.427 km
Eccentricity0.0033243
Inclination90.0125°
RAAN191.076°
Arg. of periapsis42.3475°
True anomaly18.91651°
Mean anomaly18.7933°
Mean motion3.3989 °/min
BSTAR0.000069892
Period105.92 mins
Definitive object data (Epoch: 2024-06-22T23:23:20.402Z)
Latitude61.35279°
Longitude-71.41195°
Altitude1,027.485 km
Speed7.355 km/s
True Right ascension12h 44m 12s
True Declination61° 12' 47"
Sunlit
Object was in daylight at TLE epoch
TLE from 18 hours ago
0 THOR ABLESTAR R/B
1 00953U 64083A   24174.97454169  .00000061  00000-0  69892-4 0  9996
2 00953  90.0125 191.0760 0033243  42.3475  18.7933 13.58745970950273
Epoch: 2024-06-22T23:23Z
No data available

THOR ABLESTAR R/B Visibility forecast

Observer location: 39.9160978°, -105.1181434, 0m alt.

THOR ABLESTAR R/B is not visible in the next 10 days
Span
Click to sort rows by Start time (UTC) header in descending order
Start Az.
Max El. time (UTC)
Max El. Az.
Max El.
End time (UTC)
End Az.